Gold Country Challenge - Two Day Inventory

Station: Loft Fly - T Race

Distance: 0.3 Miles    

Release: 04-Jun-2018 09:45

Weather Release: Hand Scan    Arrival: Hand Scan

Wind at Release:     Wind at Arrival:

Temp at Release: °    Temp at Arrival: °

Lofts: 88

Birds: 413

Clocked: 373

Two Day Inventory - Pulling 10th Flight on Most Birds + Hand Scan
Drops Pos Breeder Pigeon Name Color Sex Ent Arrival Speed To Win Eligible Champ
201 A P C Loft - TX 18230-AU18-APC BB H 9 2018-06-05 07:35:19.30 0.643 13:36:57 Yes
202 P N W Challenge - ID 0127-AU18-PNWC Pair#11 BBSP H 7 2018-06-05 07:35:56.50 0.642 13:38:14 Yes
202 Silicon Valley Syndicates - CA 1815-AU18-WSJ BB H 6 2018-06-05 07:36:30.50 0.642 13:38:14 Yes
204 House Of Paine - CA 1826-AU18-GSF MLY H 1 2018-06-05 07:37:11.10 0.641 13:39:31 Yes
204 Genesis Syndicate Loft - AZ 0269-AU18-GEN BC H 8 2018-06-05 07:37:53.80 0.641 13:39:31 Yes
206 Genesis Syndicate Loft - AZ 0525-AU18-GEN BBSP H 9 2018-06-05 07:38:44.90 0.640 13:40:48 Yes
207 Apr Loft - CA 2084-AU18-SFR Miss Letlet BB H 3 2018-06-05 08:01:42.80 0.623 14:03:19 Yes
208 Nanez Family Lofts - WI 8257-AU18-NANE BC H 5 2018-06-05 08:02:20.50 0.622 14:04:41 Yes
208 Bieche-Stevenson - CA 8298-AU18-BIE RC H 3 2018-06-05 08:02:58.40 0.622 14:04:41 Yes
208 Ken Chin - CA 54750-AU18-ARPU BC H 7 2018-06-05 08:03:32.80 0.622 14:04:41 Yes
211 Bob Bostwick - CA 0812-AU18-COCO BB H 1 2018-06-05 08:04:10.70 0.621 14:06:03 Yes
211 John Mcdonald - OH 1201-AU18-BUCK GRIZ H 2 2018-06-05 08:04:42.30 0.621 14:06:03 Yes
213 K C Loft - CA 0682-AU18-FMT BB H 3 2018-06-05 08:05:20.90 0.620 14:07:25 Yes
213 Nemelka Racing Pigeon Loft - UT 8013-AU18-NRPL Suprstitous x Miss Guided LC C 4 2018-06-05 08:06:03.50 0.620 14:07:25 Yes
215 Al Shulman - CA 2761-AU18-WSJ DCWF H 4 2018-06-05 08:06:31.60 0.619 14:08:48 Yes
215 Fantastic 4 Syndicate - CA 4722-AU18-RR BC H 2 2018-06-05 08:07:14.60 0.619 14:08:48 Yes
217 H & H Flying Circus - CA 0802-AU18-ML BC H 2 2018-06-05 08:07:47.50 0.618 14:10:11 Yes
217 Lopez/ Saenz - CA 0317-AU18-TCH BB H 2 2018-06-05 08:08:11.70 0.618 14:10:11 Yes
217 Bieche-Stevenson - CA 8259-AU18-BIE BB H 4 2018-06-05 08:08:53.80 0.618 14:10:11 Yes
220 Bieche-Stevenson - CA 8302-AU18-BIE BC H 5 2018-06-05 08:09:35.20 0.617 14:11:34 Yes
220 Blue - Face - CA 1903-AU18-FVC BB H 3 2018-06-05 08:10:25.20 0.617 14:11:34 Yes
222 B S Lofts - CA 0807-AU18-BSL ® 9796 & 1950 BBWF H 5 2018-06-05 08:11:06.10 0.616 14:12:57 Yes
223 Loizzi - Sikora - CA 2509-AU18-FVC BCOP H 6 2018-06-05 08:11:57.50 0.615 14:14:21 Yes
223 Oscar Yanez - CA 4668-AU18-FOYS Osty 2 BB H 3 2018-06-05 08:12:58.80 0.615 14:14:21 Yes
225 O'brien & Ellis - CA 8408-AU18-SWI SMBB H 5 2018-06-05 08:13:45.60 0.614 14:15:44 Yes
225 Skychargers - CA 0188-AU18-CORO BB H 4 2018-06-05 08:14:17.30 0.614 14:15:44 Yes
227 Nanez Family Lofts - WI 8183-AU18-NANE BB H 6 2018-06-05 08:15:12.50 0.613 14:17:09 Yes
227 Perfection 2 - KS 0171-AU18-SEBR BBSP H 6 2018-06-05 08:15:59.80 0.613 14:17:09 Yes
229 Kay Eastwood - CA 0144-AU18-HANG BB H 3 2018-06-05 08:17:12.80 0.612 14:18:33 Yes
230 Ken Chin - CA 0472-AU18-HAY BCSP H 8 2018-06-05 08:18:02.50 0.611 14:19:58 Yes
230 Perfection 2 - KS 0174-AU18-SEBR BB H 7 2018-06-05 08:18:34.60 0.611 14:19:58 Yes
232 Lopez/ Saenz - CA 0062-AU18-TCH BBWF H 3 2018-06-05 08:19:06.60 0.610 14:21:23 Yes
232 Genesis Syndicate Loft - AZ 0362-AU18-GEN BC H 10 2018-06-05 08:19:45.80 0.610 14:21:23 Yes
234 Triangle F Loft - UT 0257-AU18-UVI BCWF H 4 2018-06-05 08:20:20.20 0.609 14:22:48 Yes
234 Genesis Syndicate Loft - AZ 0509-AU18-GEN BB H 11 2018-06-05 08:21:06.20 0.609 14:22:48 Yes
236 Marengo Creek Farms - AL 2941-AU18-MCF BB H 5 2018-06-05 08:22:39.20 0.608 14:24:14 Yes
237 O'brien & Ellis - CA 8409-AU18-SWI BB H 6 2018-06-05 08:23:15.80 0.607 14:25:40 Yes
237 Skylinerpl.Com - UT 1039-AU18-UVI "Pied Princes" PIED H 8 2018-06-05 08:24:03.70 0.607 14:25:40 Yes
239 Skychargers - CA 21659-AU18-JEDD GRIZ H 5 2018-06-05 08:24:46.70 0.606 14:27:06 Yes
239 California Breeders Syndicate - CA 1520-AU18-AA DC H 5 2018-06-05 08:25:32.10 0.606 14:27:06 Yes
241 Fleet Washington - DC 1829-AU18-FLET BCWF H 3 2018-06-05 08:26:17.80 0.605 14:28:32 Yes
241 Sierra Ranch - CA 1812-AU18-SR BB H 6 2018-06-05 08:27:00.90 0.605 14:28:32 Yes
243 Nanez Family Lofts - WI 8222-AU18-NANE BC H 7 2018-06-05 08:27:53.60 0.604 14:29:59 Yes
244 Frank Gonsalves - CA 0502-AU18-AA BB H 3 2018-06-05 08:29:10.10 0.603 14:31:26 Yes
244 Lopez/ Saenz - CA 2108-AU18-TCH BC H 4 2018-06-05 08:29:47.20 0.603 14:31:26 Yes
246 Fleet Washington - DC 1825-AU18-FLET BC H 4 2018-06-05 08:30:39.20 0.602 14:32:53 Yes
247 Jactions Loft - CA 0817-AU18-AA BB H 9 2018-06-05 08:31:56.20 0.601 14:34:21 Yes
247 Skylinerpl.Com - UT 11430-AU18-JEDD 'Easy Does It" PIED H 9 2018-06-05 08:32:39.50 0.601 14:34:21 Yes
249 Irishsyndicatelofts - AZ 0144-IF18-IRIS BB H 5 2018-06-05 08:45:06.70 0.593 14:46:12 Yes
250 Fantastic 4 Syndicate - CA 4720-AU18-RR BBWF H 3 2018-06-05 08:45:48.80 0.592 14:47:42 Yes
250 Aimhigh Loft - CA 0103-AU18-FMT Aim-1406/723 BC H 3 2018-06-05 08:46:31.30 0.592 14:47:42 Yes
252 Racing Pigeon Mall - WA 0801-AU18-RPM BB H 3 2018-06-05 09:36:18.00 0.560 15:38:40 Yes
252 All In - CA 0164-AU18-BON SILV H 5 2018-06-05 09:37:11.50 0.560 15:38:40 Yes
254 Nemelka Racing Pigeon Loft - UT 8017-AU18-NRPL God of War x Ann. Gift BC C 5 2018-06-05 09:37:57.20 0.559 15:40:21 Yes
254 Genesis Syndicate Loft - AZ 0516-AU18-GEN BC H 12 2018-06-05 09:38:41.20 0.559 15:40:21 Yes
254 P N W Challenge - ID 0704-AU18-DA Pair#J BB H 8 2018-06-05 09:39:15.20 0.559 15:40:21 Yes
257 Dick & Jeff Earthman - NV 0848-AU18-EART BB H 2 2018-06-05 09:39:58.50 0.558 15:42:03 Yes
257 Oscar Yanez - CA 4674-AU18-FOYS Osty 4 BB H 4 2018-06-05 09:40:38.70 0.558 15:42:03 Yes
259 K C Loft - CA 0688-AU18-FMT BBSP H 4 2018-06-05 09:41:26.50 0.557 15:43:45 Yes
259 777-Loft - MN 0117-AU18-SPR DC H 2 2018-06-05 09:42:14.20 0.557 15:43:45 Yes
261 Scrub Family Loft - MN 0098-AU18-UNIT BB H 2 2018-06-05 09:42:52.50 0.556 15:45:27 Yes
261 K C Loft - CA 0686-AU18-FMT BB H 5 2018-06-05 09:43:27.40 0.556 15:45:27 Yes
261 Utaz Team - UT 0480-AU18-SLI BC H 3 2018-06-05 09:44:09.40 0.556 15:45:27 Yes
264 Rob Wilson - CA 1504-AU18-AVC BBWF H 1 2018-06-05 09:44:46.00 0.555 15:47:09 Yes
264 De La O-Siino - CA 8092-AU18-COOK BCWF C 3 2018-06-05 09:45:37.40 0.555 15:47:09 Yes
264 Dick & Jeff Earthman - NV 0847-AU18-EART BB H 3 2018-06-05 09:46:11.60 0.555 15:47:09 Yes
267 Utaz Team - UT 0118-IF18-PSC DC H 4 2018-06-05 09:46:50.20 0.554 15:48:53 Yes
268 Utaz Team - UT 0482-AU18-SLI BB H 5 2018-06-05 09:49:07.30 0.553 15:50:36 Yes
269 Kay Eastwood - CA 0158-AU18-HANG MLY H 5 2018-06-05 09:49:58.80 0.552 15:52:20 Yes
269 Kay Eastwood - CA 0156-AU18-HANG BB H 4 2018-06-05 09:50:34.30 0.552 15:52:20 Yes
269 Oscar Yanez - CA 4661-AU18-FOYS Osty 1 BB H 5 2018-06-05 09:51:14.90 0.552 15:52:20 Yes
272 A P C Loft - TX 18190-AU18-APC BB H 10 2018-06-05 09:51:51.30 0.551 15:54:04 Yes
272 Yang Family Racing - CA 0005-AU18-YS 182 X 12303 BC H 2 2018-06-05 09:52:37.60 0.551 15:54:04 Yes
274 K C Loft - CA 0680-AU18-FMT BBWF H 6 2018-06-05 09:53:14.20 0.550 15:55:48 Yes
274 Larry’s Loft - CA 5952-AU18-FOYS larrys dream BB H 1 2018-06-05 09:54:11.10 0.550 15:55:48 Yes
276 Jim Lauritzen - CA 0954-AU18-EAV BC H 2 2018-06-05 09:54:56.50 0.549 15:57:33 Yes
277 H & H Flying Circus - CA 0801-AU18-ML BC H 3 2018-06-05 09:59:30.60 0.547 16:01:04 Yes
278 Lopez/ Saenz - CA 0031-AU18-TCH BB H 5 2018-06-05 10:00:13.50 0.546 16:02:50 Yes
278 California Breeders Syndicate - CA 0105-AU18-HANG BC H 6 2018-06-05 10:00:46.10 0.546 16:02:50 Yes
278 Jamie Bertero - CA 0613-AU18-ML BC H 1 2018-06-05 10:01:20.90 0.546 16:02:50 Yes
281 Refrieddreamsrpl - AZ 1179-AU18-ARZ BC H 2 2018-06-05 10:02:07.70 0.545 16:04:37 Yes
281 Nanez Family Lofts - WI 8217-AU18-NANE BB H 8 2018-06-05 10:02:52.10 0.545 16:04:37 Yes
281 Ron Brooks - AR 1811-AU18-REB BB H 2 2018-06-05 10:03:27.20 0.545 16:04:37 Yes
284 Big Game Loft - CA 0102-AU18-EAV BC H 1 2018-06-05 10:04:04.50 0.544 16:06:24 Yes
284 Kay Eastwood - CA 0141-AU18-HANG BBSP H 6 2018-06-05 10:05:02.30 0.544 16:06:24 Yes
286 Irishsyndicatelofts - AZ 0145-IF18-IRIS BBWF H 6 2018-06-05 10:05:44.40 0.543 16:08:11 Yes
286 Ken Chin - CA 0476-AU18-HAY BB H 9 2018-06-05 10:07:10.30 0.543 16:08:11 Yes
288 Al Shulman - CA 2758-AU18-WSJ BB H 5 2018-06-05 10:07:55.70 0.542 16:09:59 Yes
288 Sugar+onni Loft - CA 9336-AU18-FOYS BB H 4 2018-06-05 10:08:55.80 0.542 16:09:59 Yes
290 Joe Neves - CA 3586-AU18-FORT BB H 1 2018-06-05 10:09:41.70 0.541 16:11:47 Yes
291 Flyhome Loft - CA 1810-AU18-FLYH BB H 4 2018-06-05 10:11:40.80 0.540 16:13:35 Yes
291 Oscar Yanez - CA 4673-AU18-FOYS Osty 3 BB H 6 2018-06-05 10:12:40.20 0.540 16:13:35 Yes
293 Al Shulman - CA 2753-AU18-WSJ BCWF H 6 2018-06-05 10:13:59.40 0.539 16:15:24 Yes
294 G & J Lofts - CA 3005-AU18-AA Dicken’s Delight BB H 5 2018-06-05 10:15:01.20 0.538 16:17:13 Yes
294 Dick & Jeff Earthman - NV 0849-AU18-EART PIED H 4 2018-06-05 10:15:51.40 0.538 16:17:13 Yes
296 John Partridge - CA 1062-AU18-PASO BB H 7 2018-06-05 10:16:55.30 0.537 16:19:03 Yes
297 Plymouth Peak Pro Challenge - UT 0325-AU18-DNA BC H 1 2018-06-05 10:34:45.50 0.528 16:35:48 Yes
298 Perfection 2 - KS 4517-AU18-AA BB H 8 2018-06-05 10:35:36.80 0.527 16:37:42 Yes
298 Cloux Loft - CO 8301-AU18-FH BC H 2 2018-06-05 10:36:15.70 0.527 16:37:42 Yes
300 Bieche-Stevenson - CA 8398-AU18-BIE BB H 6 2018-06-05 10:36:56.10 0.526 16:39:37 Yes

There are 399 bird records

Note: These Race Results are unofficial and subject to change until verified by the Race Committee and declared final.